Volver al catálogo

STARLINK-35338

ActivoComunicacionesVLEO
NORAD 66250·PAYLOAD·🇺🇸 United States

Lanzado Oct 29, 2025 desde Cape Canaveral Space Force Station

Loading…

Próximos Pases (próximas 24 horas)

TLE

ActualizadoSource: CelesTrak SupGP

Época: Sep 14, 2026, 22:28 UTC

1 66250C 25245S   26257.93659722 -.00013839  00000+0 -44510-3 0  2571
2 66250  53.1580 123.3295 0001484  82.7475 242.6725 15.31703766    16

Sigue STARLINK-35338 en tiempo real con AllMySat

Download on the App Store